Home   Weather   Jaipur   Past weeks

Flag for India Past Weather in Jaipur, Rajasthan, India — Yesterday and Last 2 Weeks

Now
91 °F

Scattered clouds.


Feels Like: 100 °F
Forecast: 79 / 96 °F
Wind: 8 mph from Northwest

Location: Jaipur / Sanganer

Current Time: Aug 17, 2017 at 1:23:18 pm

Latest Report: Aug 17, 2017 at 1:00 pm


Visibility: 3 mi

Pressure: 29.65 "Hg

Humidity: 56%

Dew Point: 73 °F

Location of JaipurLocation

Past Weather in Jaipur — Graph

°F

Jaipur Temperature Yesterday

Maximum temperature yesterday: 95 °F (at 3:30 pm)
Minimum temperature yesterday: 79 °F (at 5:00 am)
Average temperature yesterday: 87 °F

High & Low Weather Summary for the Past Weeks

 TemperatureHumidityPressure
High95 °F (Aug 16, 3:30 pm)100% (Aug 3, 5:30 am)29.80 "Hg (Aug 3, 5:30 am)
Low75 °F (Aug 3, 5:30 am)50% (Aug 16, 3:30 pm)29.50 "Hg (Aug 4, 4:30 pm)
Average83 °F76%29.65 "Hg
* Reported Aug 2 11:30 am — Aug 17 12:00 pm, Jaipur. Weather by CustomWeather, © 2017

Note: Actual official high and low records may vary slightly from our data, if they occured in-between our weather recording intervals... More about our weather records

Advertising

Jaipur Weather History for the Previous 24 Hours

Scroll right to see more
 ConditionsComfort  
Time TempWeatherWind HumidityBarometerVisibility
12:00 pm
Thu, Aug 17
90 °FScattered clouds.8 mph59%29.65 "Hg3 mi
11:30 am88 °FScattered clouds.9 mph62%29.68 "Hg3 mi
11:00 am88 °FScattered clouds.13 mph62%29.68 "Hg3 mi
10:00 am84 °FScattered clouds.12 mph70%29.68 "Hg2 mi
9:30 am84 °FScattered clouds.13 mph70%29.68 "Hg2 mi
9:00 am84 °FScattered clouds.13 mph70%29.68 "Hg2 mi
8:30 am82 °FScattered clouds.12 mph70%29.68 "Hg2 mi
8:00 am82 °FScattered clouds.13 mph70%29.68 "Hg2 mi
7:30 am81 °FScattered clouds.12 mph74%29.65 "Hg2 mi
7:00 am81 °FScattered clouds.8 mph74%29.65 "Hg2 mi
6:30 am79 °FScattered clouds.8 mph79%29.65 "Hg2 mi
6:00 am79 °FPassing clouds.8 mph79%29.62 "Hg2 mi
5:00 am81 °FPassing clouds.8 mph70%29.62 "Hg2 mi
4:00 am81 °FPassing clouds.7 mph74%29.59 "Hg2 mi
3:00 am81 °FPassing clouds.8 mph74%29.62 "Hg2 mi
2:00 am82 °FPassing clouds.8 mph70%29.62 "Hg2 mi
12:30 am82 °FPassing clouds.10 mph74%29.62 "Hg2 mi
12:00 am82 °FPassing clouds.10 mph74%29.62 "Hg2 mi
11:30 pm
Wed, Aug 16
82 °FPassing clouds.13 mph74%29.62 "Hg2 mi
11:00 pm84 °FPassing clouds.13 mph70%29.65 "Hg2 mi
10:30 pm84 °FPassing clouds.13 mph70%29.65 "Hg2 mi
9:30 pm86 °FPassing clouds.15 mph66%29.62 "Hg2 mi
8:30 pm88 °FPassing clouds.12 mph62%29.62 "Hg2 mi
7:30 pm90 °FScattered clouds.14 mph59%29.62 "Hg2 mi
7:00 pm90 °FScattered clouds.13 mph63%29.59 "Hg2 mi
6:30 pm91 °FScattered clouds.14 mph59%29.59 "Hg3 mi
6:00 pm93 °FScattered clouds.16 mph53%29.59 "Hg3 mi
5:30 pm93 °FScattered clouds.16 mph53%29.59 "Hg3 mi
5:00 pm93 °FScattered clouds.14 mph53%29.59 "Hg3 mi
4:30 pm93 °FScattered clouds.13 mph53%29.59 "Hg3 mi
4:00 pm95 °FScattered clouds.12 mph50%29.62 "Hg3 mi
3:30 pm95 °FScattered clouds.14 mph50%29.62 "Hg3 mi
3:00 pm93 °FScattered clouds.1 mph53%29.62 "Hg3 mi
2:30 pm93 °FScattered clouds.14 mph53%29.65 "Hg3 mi
2:00 pm93 °FScattered clouds.10 mph53%29.65 "Hg3 mi
1:30 pm93 °FScattered clouds.12 mph53%29.68 "Hg3 mi
1:00 pm91 °FScattered clouds.14 mph56%29.68 "Hg3 mi
Weather by CustomWeather, © 2017

See weather overviewHow to use our weather pages